Погода в Захарьино

Россия / Новгородская область     58°47′43″N   31°33′51″E
темп.,
°C
ветер,
м/с
пор.,
м/с
влажн.,
%
обл.,
%
осадки,
мм/ч
давл.,
гПа
погр.,
м
20 апреля, вт
вт2000:00+4в396023 0.0 1025236
03:00+2всв3970100 0.0 1025223
06:00+2в39805 0.0 1023224
09:00+7в48553 0.0 1023619
12:00+9вюв5742100 0.0 10211633
15:00+11вюв353653 0.0 10201861
18:00+9вюв465455 0.0 10181194
21:00+6в376986 0.0 1017262
21 апреля, ср
ср2100:00+5вюв3879100 0.0 1015329
03:00+4в2688100 0.0 1014327
06:00+4св2496100 0.2 1011652
09:00+4св3595100 0.3 1009649
12:00+4ссв2595100 0.3 1006612
15:00+3с2497100 1.7 1005494
18:00+3сз1397100 0.6 1005380
21:00+3зюз1498100 0.6 1005312
22 апреля, чт
чт2200:00+3ююз129690 0.0 1006123
03:00+1ю239971 0.0 100659
06:00+2ююв249779 0.0 1006132
09:00+7ю35762 0.1 1007367
12:00+12ююз46615 0.0 1007943
15:00+15ююз474481 0.3 10072137
18:00+14ю46485 0.0 10061280
21:00+9ю4107573 0.3 1007301
23 апреля, пт
пт2300:00+8ююз2691100 0.6 1008406
03:00+6юз2484100 0.6 1008144
06:00+5ююз2383100 0.0 1008122
09:00+4юз3494100 3.8 1008479
12:00+4ююз2486100 1.4 1009429
15:00+8ю4763100 1.4 10101415
18:00+8ю476796 0.3 10101001
21:00+5юв388398 0.6 1010226
24 апреля, сб
сб2400:00+3ю2591100 0.1 1010104
03:00+2юз1182100 0.1 100913
06:00+1юз1184100 0.0 100922
09:00+5юз236879 0.0 1009521
12:00+8ююз345452 0.3 10081435
15:00+9ююз454275 0.4 10082066
18:00+8ююз344322 0.0 10081727
21:00+3ю22655 0.0 100828